FW9333 Weather Reports


time (UTC)temp
F
wind
direction
speed
knots
gust
knots
rain 1hr
in
rain 24hr
in
rain mn
in
humidity
%
barometer
mb
20260503211505 58 209 0.0 4.3 0.00 0.00 0.00 42 1014.7
20260503210002 58 160 0.0 3.5 0.00 0.00 0.00 44 1014.7
20260503204601 59 109 0.0 6.1 0.00 0.00 0.00 40 1014.9
20260503203110 58 98 0.9 4.3 0.00 0.00 0.00 37 1015.0
20260503201600 59 15 0.0 6.1 0.00 0.00 0.00 39 1015.3
20260503200056 59 33 0.9 5.2 0.00 0.00 0.00 39 1015.4
20260503194558 59 90 0.0 6.1 0.00 0.00 0.00 40 1015.6
20260503193053 59 49 0.9 7.0 0.00 0.00 0.00 35 1016.0
20260503191551 59 156 0.0 3.5 0.00 0.00 0.00 40 1016.2
20260503190048 59 248 0.0 8.7 0.00 0.00 0.00 37 1016.4
20260503184603 58 89 0.0 2.6 0.00 0.00 0.00 37 1016.5
20260503183049 58 130 1.7 6.1 0.00 0.00 0.00 41 1016.6
20260503181546 58 37 0.0 5.2 0.00 0.00 0.00 39 1016.8
20260503180040 57 38 0.9 7.0 0.00 0.00 0.00 41 1017.0
20260503174539 57 74 0.0 5.2 0.00 0.00 0.00 38 1017.2
20260503173040 57 96 0.0 3.5 0.00 0.00 0.00 41 1017.4
20260503171559 57 45 1.7 10.4 0.00 0.00 0.00 44 1017.4
20260503081537 37 130 0.0 0.0 0.00 0.00 0.00 84 1017.2
20260503071524 39 130 0.0 0.0 0.00 0.00 0.00 81 1016.7
20260503054522 41 115 0.0 0.9 0.00 0.00 0.00 78 1016.6
20260503053016 41 113 0.0 0.0 0.00 0.00 0.00 79 1016.6
20260503051514 41 113 0.0 0.0 0.00 0.00 0.00 78 1016.6
20260503050014 41 113 0.0 1.7 0.00 0.00 0.00 78 1016.7
20260503044524 41 360 0.0 0.0 0.00 0.00 0.00 78 1016.8
20260503043021 41 317 0.0 0.0 0.00 0.00 0.00 78 1016.8
20260503041511 41 315 0.0 0.0 0.00 0.00 0.00 78 1016.8
20260503040011 41 315 0.0 0.0 0.00 0.00 0.00 77 1016.7
20260503034508 42 315 0.0 0.0 0.00 0.00 0.00 77 1016.8
20260503033008 42 315 0.0 0.0 0.00 0.00 0.00 77 1016.7
20260503031507 42 315 0.0 0.0 0.00 0.00 0.00 76 1016.7
20260503030008 42 315 0.0 0.0 0.00 0.00 0.00 76 1016.7
20260503024507 43 315 0.0 0.0 0.00 0.00 0.00 76 1016.7
20260503023006 43 315 0.0 0.9 0.00 0.00 0.00 75 1016.8
20260503021505 43 315 0.0 1.7 0.00 0.00 0.00 75 1016.8
20260503020007 43 295 0.0 1.7 0.00 0.00 0.00 75 1016.8
20260503014503 43 269 0.0 0.0 0.00 0.00 0.00 75 1016.8
20260503013002 43 269 0.0 1.7 0.00 0.00 0.00 75 1016.7
20260503011502 44 269 0.0 1.7 0.00 0.00 0.00 73 1016.6
20260503010100 44 267 0.0 0.0 0.00 0.00 0.00 75 1016.4
20260503004601 44 271 0.0 1.7 0.00 0.01 0.00 74 1016.2
20260503003058 44 335 0.0 2.6 0.00 0.01 0.00 73 1016.0
20260503001558 44 269 0.9 2.6 0.00 0.01 0.00 72 1015.8
20260503000107 45 329 0.0 1.7 0.00 0.01 0.00 72 1015.7
20260502234604 45 299 0.0 2.6 0.00 0.01 0.00 71 1015.6
20260502233058 46 18 0.0 4.3 0.00 0.01 0.00 68 1015.5
20260502231556 47 14 0.9 4.3 0.00 0.01 0.00 67 1015.3
20260502230056 48 5 0.0 2.6 0.00 0.01 0.00 69 1015.1
20260502224556 48 330 0.9 3.5 0.00 0.04 0.00 68 1015.0
20260502223055 48 312 0.0 3.5 0.00 0.04 0.00 66 1014.9
20260502221609 49 313 0.0 1.7 0.00 0.04 0.00 65 1014.8
20260502214554 50 332 1.7 4.3 0.00 0.04 0.00 59 1014.4
20260502213053 51 17 0.0 4.3 0.00 0.04 0.00 55 1014.3